{"data":{"norad_id":67820,"intl_designator":"2026-032Z","name":"STARLINK-36353","alt_names":[],"object_type":"PAYLOAD","status":"ACTIVE","operator":null,"country":"US","launch_date":"2026-02-15","launch_site_code":"AFWTR","launch_vehicle":null,"mission":null,"orbit_class":"UNKNOWN","rcs_meters":null,"size_class":null,"mass_kg":null,"dimensions":null,"purposes":["comms"],"wikipedia_slug":null,"has_3d_model":false,"image_url":null,"decayed_at":null,"tle_current":{"epoch":"2026-05-25T01:08:50.752896Z","epoch_age_seconds":64832,"freshness":"FRESH","line1":"1 67820U 26032Z   26145.04780964  .00013495  00000+0  41960-3 0  9996","line2":"2 67820  97.2877 333.1581 0002057  92.9253 267.2225 15.33443634 16664","mean_motion":15.33443634,"eccentricity":0.0002057,"inclination_deg":97.2877,"raan_deg":333.1581,"arg_perigee_deg":92.9253,"mean_anomaly_deg":267.2225,"bstar":0.0004196,"rev_number":1666,"period_min":93.906288308997,"perigee_km":464.13949288818,"apogee_km":466.95498458399,"semimajor_km":6843.6842387361,"source":"CELESTRAK","updated_at":"2026-05-25T13:38:21.696917Z"}}}